Orbital Elements at Epoch 2459200.5 (2020-Dec-17.0) TDB
Reference: JPL 4 (heliocentric ecliptic J2000)
Element | Value | Uncertainty (1-sigma) | Units |
e | .657695230855357 | 0.00069914 | |
a | 2.633587224079103 | 0.0051403 | au |
q | .9014894667606785 | 8.1676e-05 | au |
i | .3567233514621839 | 0.0010027 | deg |
node | 229.1158921907521 | 0.029759 | deg |
peri | 211.7199913368882 | 0.024539 | deg |
M | 87.68151763356586 | 0.25575 | deg |
tp | 2458820.288241026821 (2019-Dec-02.78824103) | 0.0041764 | TDB |
period | 1561.061406377234 4.27 | 4.5704 0.01251 | d yr |
n | .2306123247486174 | 0.00067518 | deg/d |
Q | 4.365684981397527 | 0.0085211 | au |
|
| | Orbit Determination Parameters
Additional Information
|